www.pogodaiklimat.ru

Погода и климат >> Архив погоды >> Гана >> Кофоридуа


ПОГОДА в Кофоридуа

  • Прогноз погоды в Кофоридуа
  • Монитор погоды в Кофоридуа

АРХИВ ПОГОДЫ в Кофоридуа

Время (UTC), дата Ветер
(напр.,м/с)
 
Видим.   Явления Облачность Т
(С)
Тd
(С)
f
(%)
Тe
(С)
Тes
(С)
Комфортность P
(гПа)
Po
(гПа)
Тmin
(С)
Tmax
(С)
R
(мм)
R24
(мм)
S
(см)
06 12.02 штиль 0 7000 м дымка 5/5 360 м
[Sc]
+25.0 +23.6 92 +34 +34 очень
душно
1010.8 991.6 +24.2
09 12.02 штиль 0 7000 м в посл. час туман 3/3 360 м
[Sc]
+28.7 +24.9 80 +41 +50 опасность
перегрева
1012.3 993.3
12 12.02 ЮЗ 1 14 км {туман} 3/3 480 м
[Cu med, cong]
+33.9 +22.7 52 +44 +61 опасность
перегрева
1010.4 991.8
15 12.02 ЮЗ 1 16 км 4/4 500 м
[Cu med, cong]
+35.1 +22.7 49 +45 +52 опасность
перегрева
1007.8 989.3
18 12.02 ЮЗ 1 16 км 5/1 360 м
[Sc Ci sp]
+33.1 +22.7 54 +43 +43 опасность
перегрева
1008.6 990.0 +35.3
00 13.02 штиль 0 10 км ясно +26.1 +23.3 85 +35 +35 очень
душно
1012.9 993.8
03 13.02 штиль 0 10 км ясно +24.8 +22.7 88 +33 +33 очень
душно
1011.4 992.2
06 13.02 штиль 0 9000 м дымка 8/8 330 м
[Sc]
+24.3 +22.2 88 +32 +32 очень
душно
1012.3 993.1 +23.7
09 13.02 СЗ 1 9000 м дымка 4/4 480 м
[Cu med, cong]
+27.7 +24.7 84 +39 +47 очень
душно
1013.2 994.2
12 13.02 ЮЗ 1 16 км 6/6 480 м
[Cu med, cong]
+32.5 +23.6 60 +44 +54 опасность
перегрева
1011.9 993.2
15 13.02 ЮВ 1 7000 м мгла 4/4 450 м
[Cu med, cong]
+35.0 +22.7 49 +45 +52 опасность
перегрева
1008.6 990.1
18 13.02 Ю 2 7000 м мгла 4/1
[Sc Ci sp]
+32.5 +22.9 57 +43 +43 опасность
перегрева
1010.1 991.4 +35.0
21 13.02 штиль 0 7000 м дымка 4/4 1260 м
[Sc]
+28.5 +24.9 81 +41 +41 опасность
перегрева
1013.1 994.1
00 14.02 СЗ 1 7000 м дымка 9/5 360 м
[Sc]
+27.4 +24.9 86 +39 +39 очень
душно
1013.6 994.5
03 14.02 СЗ 1 7000 м дымка 8/8 360 м
[Sc]
+26.5 +24.6 89 +37 +37 очень
душно
1012.8 993.7
12 14.02 СЗ 1 9000 м мгла 4/4 480 м
[Cu med, cong]
+33.0 +22.7 55 +43 +58 опасность
перегрева
1012.9 994.2
15 14.02 ЮЗ 1 6000 м мгла 3/3 500 м
[Cu med, cong]
+35.3 +22.5 48 +45 +53 опасность
перегрева
1009.8 991.3
18 14.02 СЗ 2 6000 м мгла 8/3 360 м
[Sc]
+32.0 +24.5 65 +45 +45 опасность
перегрева
1010.9 992.2 +35.6
21 14.02 штиль 0 6000 м дымка ясно +28.5 +24.7 80 +41 +41 опасность
перегрева
1014.0 995.0
00 15.02 штиль 0 6000 м дымка 4/4 360 м
[Sc]
+27.3 +24.3 84 +38 +38 очень
душно
1014.8 995.7
03 15.02 штиль 0 6000 м дымка 3/3 360 м
[Sc]
+26.8 +24.9 89 +38 +38 очень
душно
1013.9 994.8
09 15.02 СЗ 1 9000 м дымка ясно +28.5 +24.9 81 +41 +53 опасность
перегрева
1015.9 996.9
12 15.02 З 1 9000 м мгла 4/4 480 м
[Cu med, cong]
+34.0 +24.8 59 +47 +63 опасность
перегрева
1013.2 994.5
18 15.02 В 1 8000 м мгла 5/3 360 м
[Cu Sc Ac trans]
+33.5 +21.4 49 +41 +41 опасность
перегрева
1010.4 991.8 +36.1
00 16.02 З 1 6000 м дымка 9/9 360 м
[Sc]
+28.4 +25.7 85 +42 +42 опасность
перегрева
1013.5 994.5
03 16.02 З 1 6000 м дымка 6/6 360 м
[Sc]
+27.1 +24.8 87 +39 +39 очень
душно
1012.2 993.1
06 16.02 штиль 0 6000 м дымка ясно +26.1 +24.6 91 +37 +37 очень
душно
1012.7 993.6 +25.5
21 16.02 Ю 1 8000 м мгла 6/0
[Sc Ac trans]
+29.0 +24.9 79 +42 +42 опасность
перегрева
1013.0 994.0
00 17.02 штиль 0 8000 м дымка 4/3 360 м
[Sc Ci fib]
+27.5 +25.2 87 +40 +40 очень
душно
1014.3 995.2
03 17.02 СЗ 1 8000 м дымка 5/4 360 м
[Sc Ci fib]
+26.3 +24.7 91 +37 +37 очень
душно
1012.3 993.2
06 17.02 СЗ 1 6000 м дымка 8/8 330 м
[Sc]
+26.2 +24.6 91 +37 +37 очень
душно
1012.7 993.6 +25.8
18 17.02 Ю 1 6000 м мгла ясно +32.5 +23.7 60 +44 +44 опасность
перегрева
1009.5 990.8 +36.5
00 18.02 штиль 0 6000 м дымка 5/5 360 м
[Sc]
+24.7 +21 +21 комфорт 1013.1 993.9
03 18.02 СЗ 1 6000 м дымка 8/8 360 м
[Sc]
+27.2 +24.9 87 +39 +39 очень
душно
1011.5 992.5
06 18.02 штиль 0 6000 м дымка 8/8 360 м
[Sc]
+26.6 +24.9 90 +38 +38 очень
душно
1011.8 992.7 +26.1
09 18.02 ЮЗ 1 6000 м дымка 8/8 360 м
[Cu Sc]
+28.5 +25.2 82 +41 +44 опасность
перегрева
1013.2 994.2
12 18.02 ЮЗ 1 9000 м мгла 6/6 480 м
[Cu med, cong]
+33.5 +24.8 60 +47 +56 опасность
перегрева
1011.6 992.9
18 18.02 ЮЗ 1 12 км 9/9 900 м
[Cb cap]
+29.5 +23.2 69 +40 +40 очень
душно
1008.9 990.1 +35.5

 

Местоположение метеостанции Кофоридуа (Гана): широта 6.08 долгота -0.25 высота над уровнем моря 167 м.

В архиве по умолчанию представлена погода в Кофоридуа за последнюю неделю. Архивные данные за месяц целиком и за предыдущие месяцы, начиная с января 2011 года, Вы можете получить, выбрав интересующий диапазон дат из раскрывающегося списка и нажав кнопку "Ввод!".


*Определитесь, кто Вы:
робот инопланетянин человек

Внимание! Время в таблицах - всемирное. Для получения местного времени необходимо прибавить поправку, которая равна 1 ч.

Смотрите также архив погоды в соседних городах и на ближайших метеорологических станциях:

Погода в Акюсе (Гана) (41 км)
Погода в Аккра (Гана) (54 км)
Погода в Тема (Гана) (58 км)
Погода в Аким Ода (Гана) (82 км)
Погода в Абетифи (Гана) (86 км)
Погода в Хо (Гана) (98 км)
Погода в Ада (Гана) (103 км)
Погода в Акатзи (Гана) (116 км)
Погода в Солтпонде (Гана) (133 км)
Погода в Кумаси (Гана) (165 км)

Пояснения к столбцам:

Ветер - указаны скорость ветра в м/с - средняя за 10 мин, порывы в срок и между сроками (в фигурных скобках) и направление, откуда дует ветер: С - северный, СВ - северо-восточный, В - восточный, ЮВ - юго-восточный, Ю - южный, ЮЗ - юго-западный, З - западный, СЗ - северо-западный.
Видимость - горизонтальная дальность видимости в метрах или километрах. При видимости от 1 до 10 км при отсутствии осадков обычно наблюдается дымка, при ухудшении видимости до 1 км и менее - туман. В сухую погоду видимость может ухудшаться дымом, пылью или мглою.
Явления - указаны атмосферные явления, наблюдавшиеся в срок или в последний час перед сроком; фигурными скобками обозначены явления, наблюдавшиеся между сроками (за 1-3 часа до срока); квадратными скобками обозначены град или гололедные отложения с указанием их диаметра в мм.
Облачность - указаны через наклонную черту общая и нижняя облачность в баллах и высота нижней границы облаков в метрах; квадратными скобками обозначены формы облаков: Ci - перистые, Cs - перисто-слоистые, Cc - перисто-кучевые, Ac - высококучевые, As - высокослоистые, Sc - слоисто-кучевые, Ns - слоисто-дождевые, Cu - кучевые, Cb - кучево-дождевые. Подробнее классификацию облаков см. в Атласе облаков (PDF).
T - Температура воздуха - температура, измеренная на высоте 2 м над землей.
Td - Температура точки росы - температура, при понижении до которой содержащийся в воздухе водяной пар достигнет насыщения.
f - Относительная влажность воздуха - влажноcть воздуха, измеренная на высоте 2 м над землей.
Te - Эффективная температура - температура, которую ощущает одетый по сезону человек в тени. Характеристика душности погоды. При расчете учитывается влияние влажности воздуха и скорости ветра на теплоощущения человека.
Tes - Эффективная температура на солнце - температура, которую ощущает человек, с поправкой на солнечный нагрев. Характеристика знойности погоды. Зависит от высоты солнца над горизонтом, облачности и скорости ветра. Ночью, в пасмурную погоду, а также при ветре 12 м/с и более поправка равна нулю.
P - Атмосферное давление - приведенное к уровню моря атмосферное давление.
Po - Атмосферное давление - измеренное на уровне метеостанции атмосферное давление.
Tmin - Минимальная температура - минимум температуры воздуха на высоте 2 м над землей.
Tmax - Максимальная температура - максимум температуры воздуха на высоте 2 м над землей.
R - Количество осадков - Количество выпавших осадков за период времени, мм. При наведении курсора мыши на число - период времени, за который выпало указанное количество осадков.
R24 - Количество осадков - Количество выпавших осадков за 24 часа, мм.
S - Снежный покров - Высота снежного покрова, см. При наведении курсора мыши на число - состояние снежного покрова и степень покрытия местности в баллах.